COSMOS 2251 DEB, 38208

Orbit data source: Space-Track

COSMOS 2251 DEB, 38208 is space debris in LEO originally from a launch on Wed, 16 Jun 1993 UTC launched from the Plesetsk Missile And Space Complex (PKMTR). The debris from Iridium 33, an American commercial communications satellite, has been tracked extensively since its accidental collision with the defunct Russian satellite Cosmos 2251 in 2009. This event, occurring at high speed in low Earth orbit (LEO), generated thousands of pieces of space debris, significantly increasing the risk of further collisions. The Iridium 33 debris cloud has impacted space traffic management and orbital debris mitigation strategies, making it a subject of ongoing study in space situational awareness.

Loading next visibility...
Identifier
38208, 1993-036BSY
Orbit
LEO
Country
Flag of CISCIS
Related business
Manufacturer
Unknown
Mission
Spacecraft
Bus & Motor
Unknown
Mass
Unknown
Launch date (UTC)
1993-06-16 (32 years ago)
Launch vehicle
Unknown
Launch site
Plesetsk Missile And Space Complex (PKMTR)
Object type
Payload
Rocket body
Debris
Shape & HBR
Unknown shape, 0.1 m
Radar Cross Section
Small (<0.1 m²)

Expand to show TLE details & history
Last TLE update: 15 hours ago

TLE from 15 hours ago
0 COSMOS 2251 DEB
1 38208U 93036BSY 25299.91110566  .00016936  00000-0  21671-2 0  9992
2 38208  74.0062 171.6840 0008023 244.9904 129.4578 14.81315256704658
Epoch: 2025-10-26T21:51Z
TLE epoch observation values (Epoch: 2025-10-26T21:51:59.529Z)
Latitude
13.91983°
Longitude
172.21697°
Altitude
630.673 km
Speed
7.542 km/s
True Right ascension
11h 42m 56s
True Declination
13° 50' 18"
Sunlit
Object was in daylight at epoch
Visualization orbit readout
Latitude
Unknown
Longitude
Unknown
Altitude
Unknown
Speed
Unknown
Apparent Right ascension
Unknown
Apparent Declination
Unknown
Sunlit
N/A
Visualization observer readout
Local Sidereal Time
08:23:23
Azimuth
Unknown
Elevation
Unknown
Doppler factor
Unknown
Orbital elements
Apogee altitude
628.369 km
Perigee altitude
617.135 km
Semi-major axis
7,000.889 km
Eccentricity
0.0008
Inclination
74.0062°
RAAN
171.684°
Arg. of periapsis
244.9904°
True anomaly
129.52874°
Mean anomaly
129.4578°
Eccentric anomaly
129.49327°
Mean motion
3.70521 °/min
Orbital period
97.16 mins
BSTAR
0.0021671
Loading maneuver chart data...
Computing Atmospheric mass density...

Documentation

Showing up to 5 results
|